TimeEET,TemperatureF,Dew PointF,Humidity,Sea Level PressureIn,VisibilityMPH,Wind Direction,Wind SpeedMPH,Gust SpeedMPH,PrecipitationIn,Events,Conditions,WindDirDegrees,DateUTC
1:50 AM,53.6,51.8,94,29.98,6.2,WNW,2.3,-,N/A,,Mostly Cloudy,290,2012-11-20 23:50:00
5:50 AM,50.0,48.2,94,29.98,6.2,Calm,Calm,-,N/A,,Mostly Cloudy,0,2012-11-21 03:50:00
6:20 AM,50.0,48.2,94,29.98,6.2,Calm,Calm,-,N/A,,Scattered Clouds,0,2012-11-21 04:20:00
6:50 AM,50.0,50.0,100,29.98,6.2,Calm,Calm,-,N/A,,Scattered Clouds,0,2012-11-21 04:50:00
7:20 AM,50.0,48.2,94,29.98,6.2,Calm,Calm,-,N/A,,Scattered Clouds,0,2012-11-21 05:20:00
7:50 AM,50.0,50.0,100,29.98,6.2,Calm,Calm,-,N/A,,Scattered Clouds,0,2012-11-21 05:50:00
8:20 AM,53.6,51.8,94,30.01,5.0,Calm,Calm,-,N/A,,Scattered Clouds,0,2012-11-21 06:20:00
8:50 AM,55.4,53.6,94,30.01,5.0,Calm,Calm,-,N/A,,Scattered Clouds,0,2012-11-21 06:50:00
9:20 AM,59.0,55.4,88,30.01,5.0,Calm,Calm,-,N/A,,Scattered Clouds,0,2012-11-21 07:20:00
9:50 AM,60.8,57.2,88,30.01,4.3,Calm,Calm,-,N/A,,Scattered Clouds,0,2012-11-21 07:50:00
10:20 AM,62.6,57.2,82,29.98,5.0,Calm,Calm,-,N/A,,Scattered Clouds,0,2012-11-21 08:20:00
10:50 AM,64.4,57.2,77,29.98,6.2,Calm,Calm,-,N/A,,Scattered Clouds,0,2012-11-21 08:50:00
11:20 AM,64.4,57.2,77,30.01,6.2,Calm,Calm,-,N/A,,Scattered Clouds,0,2012-11-21 09:20:00
11:50 AM,64.4,55.4,73,29.98,6.2,Calm,Calm,-,N/A,,Scattered Clouds,0,2012-11-21 09:50:00
12:20 PM,66.2,55.4,68,29.98,6.2,Calm,Calm,-,N/A,,Scattered Clouds,0,2012-11-21 10:20:00
12:50 PM,66.2,55.4,68,29.98,6.2,NNW,4.6,-,N/A,,Mostly Cloudy,330,2012-11-21 10:50:00
1:20 PM,66.2,55.4,68,29.95,6.2,Calm,Calm,-,N/A,,Scattered Clouds,0,2012-11-21 11:20:00
1:50 PM,68.0,55.4,64,29.95,6.2,Calm,Calm,-,N/A,,Scattered Clouds,0,2012-11-21 11:50:00
2:20 PM,68.0,55.4,64,29.95,6.2,Calm,Calm,-,N/A,,Scattered Clouds,0,2012-11-21 12:20:00
2:50 PM,66.2,55.4,68,29.95,6.2,Calm,Calm,-,N/A,,Scattered Clouds,0,2012-11-21 12:50:00
3:20 PM,66.2,57.2,73,29.95,6.2,Calm,Calm,-,N/A,,Mostly Cloudy,0,2012-11-21 13:20:00
3:50 PM,64.4,57.2,77,29.98,6.2,Calm,Calm,-,N/A,,Mostly Cloudy,0,2012-11-21 13:50:00
4:20 PM,60.8,57.2,88,29.98,6.2,Calm,Calm,-,N/A,Rain,Light Rain,0,2012-11-21 14:20:00
4:50 PM,60.8,57.2,88,29.98,6.2,Calm,Calm,-,N/A,Rain,Light Rain,0,2012-11-21 14:50:00
5:20 PM,59.0,57.2,94,29.98,4.3,Calm,Calm,-,N/A,Rain,Rain,0,2012-11-21 15:20:00
5:50 PM,59.0,57.2,94,29.98,6.2,Calm,Calm,-,N/A,,Scattered Clouds,0,2012-11-21 15:50:00
6:20 PM,57.2,55.4,94,29.98,6.2,Calm,Calm,-,N/A,,Scattered Clouds,0,2012-11-21 16:20:00
6:50 PM,57.2,55.4,94,29.98,6.2,Calm,Calm,-,N/A,,Scattered Clouds,0,2012-11-21 16:50:00
7:20 PM,57.2,55.4,94,29.98,6.2,NW,5.8,-,N/A,,Scattered Clouds,320,2012-11-21 17:20:00
7:50 PM,57.2,55.4,94,30.01,6.2,Calm,Calm,-,N/A,,Scattered Clouds,0,2012-11-21 17:50:00
10:50 PM,53.6,51.8,94,30.01,6.2,Calm,Calm,-,N/A,,Scattered Clouds,0,2012-11-21 20:50:00